Location: Clermont
(50.2608°N, 4.3172°E)
Time: 22:24:54
(UTC+00:00)

ATLAS 3B R/B - Pass Details

Date: 13 August 2020
Orbit: 1016 x 1179 km, 63.8° (Epoch: 22 September)

Event Time Altitude Azimuth Distance (km) Brightness Sun altitude
Exits shadow 20:14:41 13° 130° (SE) 2,576 4.0 -10.4°
Maximum altitude 20:17:04 16° 106° (ESE) 2,404 4.0 -10.7°
Drops below altitude 10° 20:20:44 10° 72° (ENE) 2,816 4.6 -11.2°
Sets 20:24:29 0° 52° (NE) 3,789 5.5 -11.6°
